Alexandroupoli, Greece

11:20 AM EEST on June 25, 2017 (GMT +0300)
Dimokritos

Weather History for LGAL - November, 2012

Change the Weather History Date:

Tuesday, November 13, 2012

  Actual Average Record
Temperature  
Mean Temperature 52 °F -  
Max Temperature 63 °F 56 °F 73 °F (2015)
Min Temperature 42 °F 41 °F 32 °F (1999)
Degree Days  
Heating Degree Days 12    
Growing Degree Days 2 (Base 50)    
Moisture  
Dew Point 45 °F    
Average Humidity 78    
Maximum Humidity 93    
Minimum Humidity 40    
Precipitation  
Precipitation 0.00 in 0.11 in - ()
Sea Level Pressure  
Sea Level Pressure 30.24 in    
Wind  
Wind Speed 4 mph ()    
Max Wind Speed 13 mph    
Max Gust Speed -    
Visibility 6.2 miles    
Events      
Averages and records for this station are not official NWS values.
T = Trace of Precipitation, MM = Missing Value Source: Averaged Metar Reports

Daily Weather History Graph

Daily Weather History Graph

Search for Another Location

Airport or City:

Trip Planner

Search our weather history database for the weather conditions in past years. The results will help you decide how hot, cold, wet, or windy it might be!

Date:

Astronomy

Nov. 13, 2012 Rise Set
Actual Time 7:01 AM EET 4:59 PM EET
Civil Twilight 6:31 AM EET 5:28 PM EET
Nautical Twilight 5:58 AM EET 6:01 PM EET
Astronomical Twilight 5:26 AM EET 6:34 PM EET
Moon 6:15 AM EET (11/13) 4:36 PM EET (11/13)
Length of Visible Light 10h 56m
Length of Day
9h 58m
Waning Crescent, 0% of the Moon is Illuminated
Nov 13
Waning Crescent
Nov 14
New
Nov 20
First Quarter
Nov 28
Full
Dec 6
Last Quarter

Hourly Weather History & Observations

Time (EET) Temp. Windchill Dew Point Humidity Pressure Visibility Wind Dir Wind Speed Gust Speed Precip Events Conditions
12:20 AM 46.4 °F 43.5 °F 41.0 °F 81% 30.30 in - North 5.8 mph - N/A   Clear
12:50 AM 48.2 °F - 44.6 °F 87% 30.30 in - North 3.5 mph - N/A   Clear
1:20 AM 46.4 °F - 42.8 °F 87% 30.30 in - Calm Calm - N/A   Clear
2:00 AM 47 °F - 42 °F 79% 30.30 in 6 mi Calm Calm - -  
2:50 AM 46.4 °F 45.2 °F 42.8 °F 87% 30.27 in - North 3.5 mph - N/A   Clear
3:20 AM 46.4 °F 45.2 °F 42.8 °F 87% 30.27 in - North 3.5 mph - N/A   Clear
3:50 AM 46.4 °F - 42.8 °F 87% 30.27 in - Calm Calm - N/A   Clear
4:20 AM 46.4 °F - 42.8 °F 87% 30.27 in - Calm Calm - N/A   Clear
5:20 AM 44.6 °F - 41.0 °F 87% 30.27 in - Calm Calm - N/A   Clear
5:50 AM 42.8 °F - 41.0 °F 93% 30.24 in - Calm Calm - N/A   Clear
6:20 AM 42.8 °F - 41.0 °F 93% 30.24 in - Calm Calm - N/A   Clear
6:50 AM 42.8 °F - 41.0 °F 93% 30.27 in - Calm Calm - N/A   Clear
7:20 AM 42.8 °F - 41.0 °F 93% 30.27 in - Calm Calm - N/A   Clear
7:50 AM 44.6 °F - 41.0 °F 87% 30.27 in - Calm Calm - N/A   Clear
8:00 AM 44 °F - 41 °F 85% 30.30 in 6 mi Calm Calm - -   Clear
8:20 AM 44.6 °F - 41.0 °F 87% 30.27 in - Calm Calm - N/A   Clear
8:50 AM 48.2 °F - 44.6 °F 87% 30.27 in - Calm Calm - N/A   Clear
9:20 AM 50.0 °F - 46.4 °F 87% 30.27 in - Calm Calm - N/A   Clear
9:50 AM 53.6 °F - 48.2 °F 82% 30.27 in - Variable 2.3 mph - N/A   Clear
10:20 AM 53.6 °F - 48.2 °F 82% 30.27 in - Variable 2.3 mph - N/A   Clear
10:50 AM 57.2 °F - 50.0 °F 77% 30.27 in - ENE 11.5 mph - N/A   Clear
11:20 AM 57.2 °F - 50.0 °F 77% 30.27 in - ENE 11.5 mph - N/A   Clear
11:50 AM 59.0 °F - 51.8 °F 77% 30.27 in - ENE 10.4 mph - N/A   Clear
12:20 PM 59.0 °F - 51.8 °F 77% 30.27 in - ENE 10.4 mph - N/A   Clear
12:50 PM 60.8 °F - 51.8 °F 72% 30.24 in - ENE 10.4 mph - N/A   Clear
1:20 PM 60.8 °F - 51.8 °F 72% 30.24 in - ENE 11.5 mph - N/A   Clear
1:50 PM 62.6 °F - 44.6 °F 52% 30.21 in - ENE 11.5 mph - N/A   Clear
2:00 PM 63 °F - 45 °F 40% 30.22 in 6 mi ENE 11.5 mph - -   Clear
2:20 PM 62.6 °F - 44.6 °F 52% 30.21 in - ENE 11.5 mph - N/A   Clear
2:50 PM 62.6 °F - 44.6 °F 52% 30.21 in 6.2 mi ENE 12.7 mph - N/A   Mostly Cloudy
3:20 PM 62.6 °F - 44.6 °F 52% 30.21 in 6.2 mi ENE 11.5 mph - N/A   Mostly Cloudy
3:50 PM 60.8 °F - 46.4 °F 59% 30.21 in 6.2 mi ENE 10.4 mph - N/A   Mostly Cloudy
4:20 PM 60.8 °F - 46.4 °F 59% 30.21 in 6.2 mi ENE 8.1 mph - N/A   Mostly Cloudy
4:50 PM 59.0 °F - 46.4 °F 63% 30.21 in 6.2 mi NE 9.2 mph - N/A   Mostly Cloudy
5:20 PM 59.0 °F - 46.4 °F 63% 30.21 in 6.2 mi NE 6.9 mph - N/A   Mostly Cloudy
5:50 PM 57.2 °F - 46.4 °F 67% 30.21 in 6.2 mi NE 5.8 mph - N/A   Mostly Cloudy
6:20 PM 57.2 °F - 46.4 °F 67% 30.21 in 6.2 mi NE 9.2 mph - N/A   Mostly Cloudy
6:50 PM 55.4 °F - 46.4 °F 72% 30.21 in 6.2 mi ENE 6.9 mph - N/A   Mostly Cloudy
7:20 PM 53.6 °F - 46.4 °F 77% 30.21 in 6.2 mi NNE 5.8 mph - N/A   Mostly Cloudy
7:50 PM 51.8 °F - 44.6 °F 76% 30.21 in 6.2 mi NNE 5.8 mph - N/A   Scattered Clouds
8:00 PM 51 °F - 45 °F 74% 30.24 in 6 mi NNE 5.8 mph - -   Scattered Clouds
8:20 PM 51.8 °F - 44.6 °F 76% 30.21 in 6.2 mi NNE 6.9 mph - N/A   Scattered Clouds
8:50 PM 50.0 °F - 46.4 °F 87% 30.21 in 6.2 mi NE 5.8 mph - N/A   Scattered Clouds
9:20 PM 50.0 °F - 46.4 °F 87% 30.21 in 6.2 mi ENE 5.8 mph - N/A   Scattered Clouds
9:50 PM 50.0 °F - 46.4 °F 87% 30.21 in 6.2 mi ENE 8.1 mph - N/A   Scattered Clouds
10:20 PM 50.0 °F - 46.4 °F 87% 30.21 in 6.2 mi NE 8.1 mph - N/A   Scattered Clouds
10:50 PM 50.0 °F - 46.4 °F 87% 30.21 in 6.2 mi NE 8.1 mph - N/A   Scattered Clouds
11:20 PM 50.0 °F - 46.4 °F 87% 30.21 in 6.2 mi NE 8.1 mph - N/A   Scattered Clouds
11:50 PM 50.0 °F - 46.4 °F 87% 30.24 in 6.2 mi NE 8.1 mph - N/A   Scattered Clouds